Houston Hull, TX

4:49 AM CST on December 15, 2019 (GMT -0600)
Sugar Land Municipal-Hull

Weather History for KSGR - August, 2019

Change the Weather History Date:

Tuesday, August 13, 2019

  Actual Average Record
Temperature  
Mean Temperature 88 °F -  
Max Temperature 99 °F 93 °F 105 °F (1962)
Min Temperature 77 °F 73 °F 60 °F (1967)
Cooling Degree Days 23    
Growing Degree Days 38 (Base 50)    
Moisture  
Dew Point 77 °F    
Average Humidity 74    
Maximum Humidity 100    
Minimum Humidity 42    
Precipitation  
Precipitation 0.00 in - - ()
Sea Level Pressure  
Sea Level Pressure 29.91 in    
Wind  
Wind Speed 5 mph (SSW)    
Max Wind Speed 17 mph    
Max Gust Speed -    
Visibility 10 miles    
Events Rain    
Averages and records for this station are not official NWS values.
T = Trace of Precipitation, MM = Missing Value Source: NWS Daily Summary

Daily Weather History Graph

Daily Weather History Graph

Search for Another Location

Airport or City:

Astronomy

Aug. 13, 2019 Rise Set
Actual Time 6:49 AM CDT 8:05 PM CDT
Civil Twilight 6:24 AM CDT 8:30 PM CDT
Nautical Twilight 5:54 AM CDT 9:00 PM CDT
Astronomical Twilight 5:23 AM CDT 9:31 PM CDT
Moon 7:12 PM CDT (8/13) 5:01 AM CDT (8/13)
Length of Visible Light 14h 06m
Length of Day
13h 15m
Waxing Gibbous, 97% of the Moon is Illuminated
Aug 13
Waxing Gibbous
Aug 15
Full
Aug 23
Last Quarter
Aug 30
New
Sep 5
First Quarter

Hourly Weather History & Observations

Time (CDT) Temp. Heat Index Dew Point Humidity Pressure Visibility Wind Dir Wind Speed Gust Speed Precip Events Conditions
12:53 AM 81.0 °F 89.2 °F 79.0 °F 94% 29.90 in 10.0 mi South 6.9 mph - N/A   Clear
1:53 AM 81.0 °F 89.2 °F 79.0 °F 94% 29.91 in 10.0 mi South 5.8 mph - N/A   Clear
2:53 AM 80.1 °F 86.4 °F 78.1 °F 94% 29.90 in 10.0 mi South 5.8 mph - N/A   Clear
3:53 AM 80.1 °F 86.4 °F 78.1 °F 94% 29.88 in 10.0 mi SSW 5.8 mph - N/A   Clear
4:53 AM 79.0 °F - 78.1 °F 97% 29.89 in 10.0 mi SSW 3.5 mph - N/A   Clear
5:53 AM 78.1 °F - 78.1 °F 100% 29.91 in 10.0 mi Calm Calm - N/A   Partly Cloudy
6:53 AM 77.0 °F - 77.0 °F 100% 29.92 in 9.0 mi Calm Calm - N/A   Clear
7:53 AM 81.0 °F 89.9 °F 80.1 °F 97% 29.93 in 10.0 mi Calm Calm - N/A   Partly Cloudy
8:53 AM 84.9 °F 97.5 °F 79.0 °F 82% 29.94 in 10.0 mi West 4.6 mph - N/A   Clear
9:53 AM 88.0 °F 104.3 °F 80.1 °F 77% 29.95 in 10.0 mi WSW 6.9 mph - N/A   Scattered Clouds
10:06 AM 90.0 °F 105.8 °F 79.0 °F 70% 29.94 in 10.0 mi WSW 6.9 mph - N/A   Mostly Cloudy
10:36 AM 90.0 °F 102.5 °F 77.0 °F 65% 29.94 in 10.0 mi SW 6.9 mph - N/A   Scattered Clouds
10:53 AM 91.0 °F 106.2 °F 78.1 °F 66% 29.95 in 10.0 mi SW 9.2 mph - N/A   Clear
11:53 AM 93.0 °F 105.3 °F 75.9 °F 57% 29.94 in 10.0 mi Calm Calm - N/A   Partly Cloudy
12:53 PM 93.9 °F 105.4 °F 75.0 °F 54% 29.93 in 10.0 mi South 5.8 mph - N/A   Scattered Clouds
1:53 PM 96.1 °F 108.6 °F 75.0 °F 51% 29.91 in 10.0 mi Calm Calm - N/A   Mostly Cloudy
2:53 PM 95.0 °F 105.2 °F 73.9 °F 50% 29.90 in 10.0 mi NNW 3.5 mph - N/A   Clear
3:53 PM 99.0 °F 108.5 °F 72.0 °F 42% 29.88 in 10.0 mi Calm Calm - N/A   Clear
4:53 PM 98.1 °F 107.2 °F 72.0 °F 43% 29.86 in 10.0 mi Calm Calm - N/A   Clear
5:53 PM 98.1 °F 108.0 °F 73.0 °F 44% 29.86 in 10.0 mi South 6.9 mph - N/A   Clear
6:53 PM 91.9 °F 105.9 °F 77.0 °F 62% 29.86 in 10.0 mi SSE 17.3 mph - 0.00 in Rain Light Rain
7:53 PM 90.0 °F 101.3 °F 75.9 °F 63% 29.87 in 10.0 mi South 15.0 mph - 0.00 in Rain Light Rain
8:53 PM 87.1 °F 97.3 °F 75.9 °F 69% 29.89 in 10.0 mi South 9.2 mph - 0.00 in Rain Light Rain
9:53 PM 84.9 °F 96.6 °F 78.1 °F 80% 29.92 in 10.0 mi South 8.1 mph - 0.00 in   Clear
10:53 PM 84.0 °F 94.8 °F 78.1 °F 82% 29.94 in 10.0 mi SSW 5.8 mph - N/A   Clear
11:53 PM 82.9 °F 92.8 °F 78.1 °F 85% 29.93 in 10.0 mi South 5.8 mph - N/A   Clear